Time,TemperatureF,DewpointF,PressureIn,WindDirection,WindDirectionDegrees,WindSpeedMPH,WindSpeedGustMPH,Humidity,HourlyPrecipIn,Conditions,Clouds,dailyrainin,SoftwareType,DateUTC
2013-01-21 00:04:00,10.5,7.7,30.06,NE,52,0.0,0.0,88,0.00,,---,0.00,VWS V14.01,2013-01-21 09:04:00,
2013-01-21 00:09:00,10.5,7.7,30.05,NE,36,1.0,1.0,88,0.00,,---,0.00,VWS V14.01,2013-01-21 09:09:00,
2013-01-21 00:14:00,10.5,7.7,30.06,ENE,59,2.0,3.0,88,0.00,,---,0.00,VWS V14.01,2013-01-21 09:14:00,
2013-01-21 00:19:00,10.5,7.7,30.06,ENE,67,1.0,2.0,88,0.00,,---,0.00,VWS V14.01,2013-01-21 09:19:00,
2013-01-21 00:24:00,10.5,7.7,30.06,NE,52,2.0,2.0,88,0.00,,---,0.00,VWS V14.01,2013-01-21 09:24:00,
2013-01-21 00:29:00,10.5,7.7,30.06,NNE,30,1.0,1.0,88,0.00,,---,0.00,VWS V14.01,2013-01-21 09:29:00,
2013-01-21 00:34:00,10.6,7.8,30.07,NNE,26,0.0,0.0,88,0.00,,---,0.00,VWS V14.01,2013-01-21 09:34:00,
2013-01-21 00:39:00,10.6,7.8,30.07,NE,36,0.0,1.0,88,0.00,,---,0.00,VWS V14.01,2013-01-21 09:39:00,
2013-01-21 00:44:00,10.6,7.8,30.07,East,92,1.0,3.0,88,0.00,,---,0.00,VWS V14.01,2013-01-21 09:44:00,
2013-01-21 00:49:00,10.6,7.8,30.07,ENE,71,2.0,3.0,88,0.00,,---,0.00,VWS V14.01,2013-01-21 09:49:00,
2013-01-21 00:54:00,10.6,7.8,30.07,ENE,78,2.0,4.0,88,0.00,,---,0.00,VWS V14.01,2013-01-21 09:54:00,
2013-01-21 00:59:00,10.6,7.8,30.07,ENE,67,2.0,2.0,88,0.00,,---,0.00,VWS V14.01,2013-01-21 09:59:00,
2013-01-21 01:04:00,10.6,7.8,30.07,ENE,65,1.0,2.0,88,0.00,,---,0.00,VWS V14.01,2013-01-21 10:04:00,
2013-01-21 01:09:00,10.6,7.8,30.07,NE,51,0.0,2.0,88,0.00,,---,0.00,VWS V14.01,2013-01-21 10:09:00,
2013-01-21 01:14:00,10.5,7.7,30.07,ENE,57,0.0,1.0,88,0.00,,---,0.00,VWS V14.01,2013-01-21 10:14:00,
2013-01-21 01:19:00,10.5,7.7,30.07,ENE,61,0.0,2.0,88,0.00,,---,0.00,VWS V14.01,2013-01-21 10:19:00,
2013-01-21 01:24:00,10.5,7.7,30.07,NE,49,1.0,2.0,88,0.00,,---,0.00,VWS V14.01,2013-01-21 10:24:00,
2013-01-21 01:29:00,10.5,7.7,30.07,ENE,69,1.0,2.0,88,0.00,,---,0.00,VWS V14.01,2013-01-21 10:29:00,
2013-01-21 01:34:00,10.4,7.6,30.08,NE,51,2.0,2.0,88,0.00,,---,0.00,VWS V14.01,2013-01-21 10:34:00,
2013-01-21 01:39:00,10.4,7.6,30.08,ENE,61,0.0,1.0,88,0.00,,---,0.00,VWS V14.01,2013-01-21 10:39:00,
2013-01-21 01:44:00,10.4,7.6,30.08,ENE,71,2.0,3.0,88,0.00,,---,0.00,VWS V14.01,2013-01-21 10:44:00,
2013-01-21 01:49:00,10.4,7.6,30.08,NE,38,0.0,1.0,88,0.00,,---,0.00,VWS V14.01,2013-01-21 10:49:00,
2013-01-21 01:54:00,10.4,7.6,30.08,ENE,61,1.0,1.0,88,0.00,,---,0.00,VWS V14.01,2013-01-21 10:54:00,
2013-01-21 01:59:00,10.3,7.5,30.08,ENE,61,1.0,3.0,88,0.00,,---,0.00,VWS V14.01,2013-01-21 10:59:00,
2013-01-21 02:04:00,10.3,7.5,30.08,ENE,57,2.0,3.0,88,0.00,,---,0.00,VWS V14.01,2013-01-21 11:04:00,
2013-01-21 02:09:00,10.3,7.5,30.08,ENE,70,1.0,2.0,88,0.00,,---,0.00,VWS V14.01,2013-01-21 11:09:00,
2013-01-21 02:14:00,10.3,7.5,30.08,NE,56,0.0,1.0,88,0.00,,---,0.00,VWS V14.01,2013-01-21 11:14:00,
2013-01-21 02:19:00,10.3,7.5,30.08,NE,43,2.0,3.0,88,0.00,,---,0.00,VWS V14.01,2013-01-21 11:19:00,
2013-01-21 02:24:00,10.3,7.5,30.08,ENE,63,0.0,3.0,88,0.00,,---,0.00,VWS V14.01,2013-01-21 11:24:00,
2013-01-21 02:29:00,10.3,7.5,30.08,ENE,67,0.0,3.0,88,0.00,,---,0.00,VWS V14.01,2013-01-21 11:29:00,
2013-01-21 02:34:00,10.3,7.5,30.08,NNE,29,2.0,2.0,88,0.00,,---,0.00,VWS V14.01,2013-01-21 11:34:00,
2013-01-21 02:39:00,10.4,7.6,30.08,NE,55,0.0,1.0,88,0.00,,---,0.00,VWS V14.01,2013-01-21 11:39:00,
2013-01-21 02:44:00,10.4,7.6,30.08,ENE,59,1.0,2.0,88,0.00,,---,0.00,VWS V14.01,2013-01-21 11:44:00,
2013-01-21 02:49:00,10.5,7.7,30.08,ENE,60,0.0,0.0,88,0.00,,---,0.00,VWS V14.01,2013-01-21 11:49:00,
2013-01-21 02:54:00,10.5,7.7,30.09,ENE,60,0.0,0.0,88,0.00,,---,0.00,VWS V14.01,2013-01-21 11:54:00,
2013-01-21 02:59:00,10.5,7.7,30.09,NE,46,1.0,1.0,88,0.00,,---,0.00,VWS V14.01,2013-01-21 11:59:00,
2013-01-21 03:04:00,10.5,7.7,30.09,NE,56,0.0,1.0,88,0.00,,---,0.00,VWS V14.01,2013-01-21 12:04:00,
2013-01-21 03:09:00,10.6,7.8,30.09,NE,56,1.0,1.0,88,0.00,,---,0.00,VWS V14.01,2013-01-21 12:09:00,
2013-01-21 03:14:00,10.6,7.8,30.09,ENE,67,1.0,3.0,88,0.00,,---,0.00,VWS V14.01,2013-01-21 12:14:00,
2013-01-21 03:19:00,10.6,7.8,30.09,ENE,70,2.0,2.0,88,0.00,,---,0.00,VWS V14.01,2013-01-21 12:19:00,
2013-01-21 03:24:00,10.6,7.8,30.09,ENE,71,1.0,2.0,88,0.00,,---,0.00,VWS V14.01,2013-01-21 12:24:00,
2013-01-21 03:29:00,10.6,7.5,30.09,ENE,64,2.0,3.0,87,0.00,,---,0.00,VWS V14.01,2013-01-21 12:29:00,
2013-01-21 03:34:00,10.7,7.6,30.09,ENE,58,2.0,2.0,87,0.00,,---,0.00,VWS V14.01,2013-01-21 12:34:00,
2013-01-21 03:39:00,10.7,7.6,30.09,NE,46,1.0,2.0,87,0.00,,---,0.00,VWS V14.01,2013-01-21 12:39:00,
2013-01-21 03:44:00,10.7,7.6,30.09,NE,45,1.0,4.0,87,0.00,,---,0.00,VWS V14.01,2013-01-21 12:44:00,
2013-01-21 03:49:00,10.8,7.7,30.09,NNE,18,1.0,2.0,87,0.00,,---,0.00,VWS V14.01,2013-01-21 12:49:00,
2013-01-21 03:54:00,10.8,7.9,30.09,NE,55,3.0,3.0,88,0.00,,---,0.00,VWS V14.01,2013-01-21 12:54:00,
2013-01-21 03:59:00,10.7,7.6,30.09,ENE,67,2.0,2.0,87,0.00,,---,0.00,VWS V14.01,2013-01-21 12:59:00,
2013-01-21 04:04:00,10.7,7.6,30.09,ENE,57,2.0,2.0,87,0.00,,---,0.00,VWS V14.01,2013-01-21 13:04:00,
2013-01-21 04:09:00,10.7,7.6,30.09,ENE,57,1.0,1.0,87,0.00,,---,0.00,VWS V14.01,2013-01-21 13:09:00,
2013-01-21 04:14:00,10.7,7.6,30.09,ENE,57,0.0,0.0,87,0.00,,---,0.00,VWS V14.01,2013-01-21 13:14:00,
2013-01-21 04:19:00,10.7,7.6,30.09,ENE,62,1.0,2.0,87,0.00,,---,0.00,VWS V14.01,2013-01-21 13:19:00,
2013-01-21 04:24:00,10.7,7.6,30.09,ENE,62,0.0,1.0,87,0.00,,---,0.00,VWS V14.01,2013-01-21 13:24:00,
2013-01-21 04:29:00,10.7,7.6,30.09,NE,49,1.0,2.0,87,0.00,,---,0.00,VWS V14.01,2013-01-21 13:29:00,
2013-01-21 04:34:00,10.7,7.6,30.09,NE,50,2.0,2.0,87,0.00,,---,0.00,VWS V14.01,2013-01-21 13:34:00,
2013-01-21 04:39:00,10.7,7.6,30.09,NE,55,3.0,3.0,87,0.00,,---,0.00,VWS V14.01,2013-01-21 13:39:00,
2013-01-21 04:44:00,10.6,7.5,30.09,NE,45,0.0,2.0,87,0.00,,---,0.00,VWS V14.01,2013-01-21 13:44:00,
2013-01-21 04:49:00,10.6,7.5,30.09,NE,45,0.0,0.0,87,0.00,,---,0.00,VWS V14.01,2013-01-21 13:49:00,
2013-01-21 04:54:00,10.6,7.5,30.10,NE,44,0.0,2.0,87,0.00,,---,0.00,VWS V14.01,2013-01-21 13:54:00,
2013-01-21 04:59:00,10.6,7.5,30.10,NE,49,0.0,0.0,87,0.00,,---,0.00,VWS V14.01,2013-01-21 13:59:00,
2013-01-21 05:04:00,10.6,7.5,30.10,NE,50,1.0,1.0,87,0.00,,---,0.00,VWS V14.01,2013-01-21 14:04:00,
2013-01-21 05:09:00,10.6,7.2,30.10,NE,49,1.0,1.0,86,0.00,,---,0.00,VWS V14.01,2013-01-21 14:09:00,
2013-01-21 05:14:00,10.5,7.4,30.10,ENE,65,1.0,2.0,87,0.00,,---,0.00,VWS V14.01,2013-01-21 14:14:00,
2013-01-21 05:19:00,10.5,7.2,30.10,NE,38,0.0,2.0,86,0.00,,---,0.00,VWS V14.01,2013-01-21 14:19:00,
2013-01-21 05:24:00,10.4,7.1,30.10,NE,44,0.0,1.0,86,0.00,,---,0.00,VWS V14.01,2013-01-21 14:24:00,
2013-01-21 05:29:00,10.4,7.1,30.10,NE,44,1.0,1.0,86,0.00,,---,0.00,VWS V14.01,2013-01-21 14:29:00,
2013-01-21 05:34:00,10.4,7.1,30.10,NE,44,0.0,1.0,86,0.00,,---,0.00,VWS V14.01,2013-01-21 14:34:00,
2013-01-21 05:39:00,10.4,7.3,30.10,NE,44,0.0,1.0,87,0.00,,---,0.00,VWS V14.01,2013-01-21 14:39:00,
2013-01-21 05:44:00,10.4,7.3,30.10,NE,35,1.0,2.0,87,0.00,,---,0.00,VWS V14.01,2013-01-21 14:44:00,
2013-01-21 05:49:00,10.4,7.3,30.10,NE,35,0.0,2.0,87,0.00,,---,0.00,VWS V14.01,2013-01-21 14:49:00,
2013-01-21 05:54:00,10.3,7.2,30.10,NE,35,0.0,1.0,87,0.00,,---,0.00,VWS V14.01,2013-01-21 14:54:00,
2013-01-21 05:59:00,10.3,7.2,30.10,NE,35,0.0,1.0,87,0.00,,---,0.00,VWS V14.01,2013-01-21 14:59:00,
2013-01-21 06:04:00,10.3,7.2,30.10,NE,35,0.0,1.0,87,0.00,,---,0.00,VWS V14.01,2013-01-21 15:04:00,
2013-01-21 06:09:00,10.2,7.1,30.10,NE,35,0.0,1.0,87,0.00,,---,0.00,VWS V14.01,2013-01-21 15:09:00,
2013-01-21 06:14:00,10.2,7.1,30.10,NE,35,1.0,1.0,87,0.00,,---,0.00,VWS V14.01,2013-01-21 15:14:00,
2013-01-21 06:19:00,10.2,7.1,30.10,NE,35,1.0,1.0,87,0.00,,---,0.00,VWS V14.01,2013-01-21 15:19:00,
2013-01-21 06:24:00,10.1,7.0,30.10,NE,37,1.0,1.0,87,0.00,,---,0.00,VWS V14.01,2013-01-21 15:24:00,
2013-01-21 06:29:00,10.1,7.0,30.10,NE,49,2.0,2.0,87,0.00,,---,0.00,VWS V14.01,2013-01-21 15:29:00,
2013-01-21 06:35:00,10.1,7.0,30.10,NE,55,1.0,1.0,87,0.00,,---,0.00,VWS V14.01,2013-01-21 15:35:00,
2013-01-21 06:40:00,10.0,6.7,30.10,NE,35,0.0,0.0,86,0.00,,---,0.00,VWS V14.01,2013-01-21 15:40:00,
2013-01-21 06:45:00,10.0,6.7,30.10,NE,51,1.0,1.0,86,0.00,,---,0.00,VWS V14.01,2013-01-21 15:45:00,
2013-01-21 06:50:00,10.0,6.7,30.10,ENE,61,1.0,1.0,86,0.00,,---,0.00,VWS V14.01,2013-01-21 15:50:00,
2013-01-21 06:55:00,10.0,6.7,30.10,ENE,71,1.0,2.0,86,0.00,,---,0.00,VWS V14.01,2013-01-21 15:55:00,
2013-01-21 07:00:00,10.0,6.7,30.10,NE,50,0.0,2.0,86,0.00,,---,0.00,VWS V14.01,2013-01-21 16:00:00,
2013-01-21 07:05:00,10.0,6.7,30.10,NE,39,2.0,2.0,86,0.00,,---,0.00,VWS V14.01,2013-01-21 16:05:00,
2013-01-21 07:10:00,10.0,6.7,30.10,ENE,61,2.0,2.0,86,0.00,,---,0.00,VWS V14.01,2013-01-21 16:10:00,
2013-01-21 07:15:00,10.0,6.7,30.10,NE,54,1.0,1.0,86,0.00,,---,0.00,VWS V14.01,2013-01-21 16:15:00,
2013-01-21 07:20:00,10.0,6.7,30.10,ENE,63,0.0,1.0,86,0.00,,---,0.00,VWS V14.01,2013-01-21 16:20:00,
2013-01-21 07:25:00,10.0,6.7,30.10,NE,56,1.0,2.0,86,0.00,,---,0.00,VWS V14.01,2013-01-21 16:25:00,
2013-01-21 07:30:00,10.0,6.7,30.10,NE,49,2.0,3.0,86,0.00,,---,0.00,VWS V14.01,2013-01-21 16:30:00,
2013-01-21 07:35:00,10.0,6.7,30.10,NE,55,2.0,3.0,86,0.00,,---,0.00,VWS V14.01,2013-01-21 16:35:00,
2013-01-21 07:40:00,10.0,6.4,30.10,ENE,57,3.0,4.0,85,0.00,,---,0.00,VWS V14.01,2013-01-21 16:40:00,
2013-01-21 07:45:00,10.0,6.4,30.10,NE,44,0.0,2.0,85,0.00,,---,0.00,VWS V14.01,2013-01-21 16:45:00,
2013-01-21 07:50:00,10.0,6.4,30.10,NE,41,2.0,2.0,85,0.00,,---,0.00,VWS V14.01,2013-01-21 16:50:00,
2013-01-21 07:55:00,10.0,6.4,30.10,NE,48,2.0,2.0,85,0.00,,---,0.00,VWS V14.01,2013-01-21 16:55:00,
2013-01-21 08:00:00,10.0,6.4,30.10,NE,48,1.0,1.0,85,0.00,,---,0.00,VWS V14.01,2013-01-21 17:00:00,
2013-01-21 08:05:00,10.0,6.4,30.11,NE,48,0.0,2.0,85,0.00,,---,0.00,VWS V14.01,2013-01-21 17:05:00,
2013-01-21 08:10:00,10.0,6.4,30.11,NE,55,0.0,1.0,85,0.00,,---,0.00,VWS V14.01,2013-01-21 17:10:00,
2013-01-21 08:15:00,10.0,6.7,30.11,NE,44,0.0,1.0,86,0.00,,---,0.00,VWS V14.01,2013-01-21 17:15:00,
2013-01-21 08:20:00,9.9,6.6,30.11,ENE,67,1.0,2.0,86,0.00,,---,0.00,VWS V14.01,2013-01-21 17:20:00,
2013-01-21 08:25:00,9.9,6.6,30.11,ENE,60,0.0,1.0,86,0.00,,---,0.00,VWS V14.01,2013-01-21 17:25:00,
2013-01-21 08:30:00,9.9,6.6,30.11,NE,48,2.0,2.0,86,0.00,,---,0.00,VWS V14.01,2013-01-21 17:30:00,
2013-01-21 08:35:00,9.9,6.6,30.11,NE,45,2.0,2.0,86,0.00,,---,0.00,VWS V14.01,2013-01-21 17:35:00,
2013-01-21 08:40:00,9.9,6.6,30.11,ENE,68,1.0,1.0,86,0.00,,---,0.00,VWS V14.01,2013-01-21 17:40:00,
2013-01-21 08:45:00,9.9,6.6,30.11,ENE,57,0.0,0.0,86,0.00,,---,0.00,VWS V14.01,2013-01-21 17:45:00,
2013-01-21 08:50:00,9.9,6.6,30.11,NE,41,0.0,1.0,86,0.00,,---,0.00,VWS V14.01,2013-01-21 17:50:00,
2013-01-21 08:55:00,9.9,6.6,30.11,NE,41,0.0,1.0,86,0.00,,---,0.00,VWS V14.01,2013-01-21 17:55:00,
2013-01-21 09:00:00,9.9,6.6,30.11,NE,41,1.0,2.0,86,0.00,,---,0.00,VWS V14.01,2013-01-21 18:00:00,
2013-01-21 09:05:00,9.9,6.6,30.11,NE,52,0.0,2.0,86,0.00,,---,0.00,VWS V14.01,2013-01-21 18:05:00,
2013-01-21 09:10:00,9.9,6.6,30.11,NE,54,3.0,3.0,86,0.00,,---,0.00,VWS V14.01,2013-01-21 18:10:00,
2013-01-21 09:15:00,9.9,6.6,30.11,East,83,0.0,1.0,86,0.00,,---,0.00,VWS V14.01,2013-01-21 18:15:00,
2013-01-21 09:20:00,9.9,6.6,30.11,NE,38,1.0,3.0,86,0.00,,---,0.00,VWS V14.01,2013-01-21 18:20:00,
2013-01-21 09:25:00,10.0,6.7,30.11,NE,40,3.0,3.0,86,0.00,,---,0.00,VWS V14.01,2013-01-21 18:25:00,
2013-01-21 09:30:00,10.0,6.7,30.11,NE,51,1.0,4.0,86,0.00,,---,0.00,VWS V14.01,2013-01-21 18:30:00,
2013-01-21 09:35:00,10.0,6.7,30.11,ENE,76,2.0,3.0,86,0.00,,---,0.00,VWS V14.01,2013-01-21 18:35:00,
2013-01-21 09:40:00,10.0,6.4,30.11,NE,34,0.0,2.0,85,0.00,,---,0.00,VWS V14.01,2013-01-21 18:40:00,
2013-01-21 09:45:00,10.1,6.5,30.11,ENE,63,1.0,3.0,85,0.00,,---,0.00,VWS V14.01,2013-01-21 18:45:00,
2013-01-21 09:50:00,10.1,6.5,30.11,ENE,59,3.0,5.0,85,0.00,,---,0.00,VWS V14.01,2013-01-21 18:50:00,
2013-01-21 09:55:00,10.0,6.4,30.11,NE,42,1.0,3.0,85,0.00,,---,0.00,VWS V14.01,2013-01-21 18:55:00,
2013-01-21 10:00:00,10.1,6.5,30.11,NE,55,2.0,2.0,85,0.00,,---,0.00,VWS V14.01,2013-01-21 19:00:00,
2013-01-21 10:05:00,10.1,6.2,30.11,ENE,64,0.0,2.0,84,0.00,,---,0.00,VWS V14.01,2013-01-21 19:05:00,
2013-01-21 10:10:00,10.1,6.2,30.11,ENE,70,3.0,3.0,84,0.00,,---,0.00,VWS V14.01,2013-01-21 19:10:00,
2013-01-21 10:15:00,10.1,6.2,30.11,ENE,60,0.0,1.0,84,0.00,,---,0.00,VWS V14.01,2013-01-21 19:15:00,
2013-01-21 10:20:00,10.1,6.2,30.11,ENE,71,0.0,2.0,84,0.00,,---,0.00,VWS V14.01,2013-01-21 19:20:00,
2013-01-21 10:25:00,10.2,6.3,30.11,NE,41,2.0,3.0,84,0.00,,---,0.00,VWS V14.01,2013-01-21 19:25:00,
2013-01-21 10:30:00,10.2,6.3,30.10,ENE,63,1.0,4.0,84,0.00,,---,0.00,VWS V14.01,2013-01-21 19:30:00,
2013-01-21 10:35:00,10.1,6.2,30.10,NE,49,1.0,3.0,84,0.00,,---,0.00,VWS V14.01,2013-01-21 19:35:00,
2013-01-21 10:40:00,10.2,6.3,30.10,ENE,67,3.0,3.0,84,0.00,,---,0.00,VWS V14.01,2013-01-21 19:40:00,
2013-01-21 10:45:00,10.2,6.3,30.10,NE,55,4.0,4.0,84,0.00,,---,0.00,VWS V14.01,2013-01-21 19:45:00,
2013-01-21 10:50:00,10.2,6.3,30.10,NE,54,1.0,3.0,84,0.00,,---,0.00,VWS V14.01,2013-01-21 19:50:00,
2013-01-21 10:55:00,10.2,6.3,30.10,NE,45,2.0,2.0,84,0.00,,---,0.00,VWS V14.01,2013-01-21 19:55:00,
2013-01-21 11:01:00,10.2,6.3,30.10,NE,50,4.0,4.0,84,0.00,,---,0.00,VWS V14.01,2013-01-21 20:01:00,
2013-01-21 11:06:00,10.2,6.1,30.10,NE,53,2.0,2.0,83,0.00,,---,0.00,VWS V14.01,2013-01-21 20:06:00,
2013-01-21 18:13:00,1.4,-2.3,30.06,NE,48,0.0,2.0,84,0.00,,---,0.00,VWS V14.01,2013-01-22 03:13:00,
2013-01-21 18:18:00,1.2,-2.5,30.06,NE,43,0.0,2.0,84,0.00,,---,0.00,VWS V14.01,2013-01-22 03:18:00,
2013-01-21 18:23:00,1.0,-2.7,30.06,NE,42,2.0,3.0,84,0.00,,---,0.00,VWS V14.01,2013-01-22 03:23:00,
2013-01-21 18:28:00,0.8,-3.1,30.06,NE,34,0.0,3.0,83,0.00,,---,0.00,VWS V14.01,2013-01-22 03:28:00,
2013-01-21 18:33:00,0.7,-3.2,30.06,NE,38,0.0,3.0,83,0.00,,---,0.00,VWS V14.01,2013-01-22 03:33:00,
2013-01-21 18:38:00,0.5,-3.4,30.06,NE,49,1.0,2.0,83,0.00,,---,0.00,VWS V14.01,2013-01-22 03:38:00,
2013-01-21 18:43:00,0.3,-3.4,30.05,NE,45,1.0,3.0,84,0.00,,---,0.00,VWS V14.01,2013-01-22 03:43:00,
2013-01-21 18:48:00,0.2,-3.5,30.06,NNE,28,2.0,3.0,84,0.00,,---,0.00,VWS V14.01,2013-01-22 03:48:00,
2013-01-21 18:53:00,0.1,-3.9,30.06,NNE,26,3.0,4.0,83,0.00,,---,0.00,VWS V14.01,2013-01-22 03:53:00,
2013-01-21 18:58:00,-0.1,-4.0,30.06,NE,46,3.0,5.0,83,0.00,,---,0.00,VWS V14.01,2013-01-22 03:58:00,
2013-01-21 19:03:00,-0.3,-4.2,30.06,NNE,28,3.0,3.0,83,0.00,,---,0.00,VWS V14.01,2013-01-22 04:03:00,
2013-01-21 19:08:00,-0.4,-4.3,30.05,NE,36,4.0,4.0,83,0.00,,---,0.00,VWS V14.01,2013-01-22 04:08:00,
2013-01-21 19:13:00,-0.5,-4.4,30.06,NE,42,3.0,3.0,83,0.00,,---,0.00,VWS V14.01,2013-01-22 04:13:00,
2013-01-21 19:18:00,-0.7,-4.6,30.06,NE,44,1.0,3.0,83,0.00,,---,0.00,VWS V14.01,2013-01-22 04:18:00,
2013-01-21 19:23:00,-0.8,-4.7,30.06,NE,46,0.0,3.0,83,0.00,,---,0.00,VWS V14.01,2013-01-22 04:23:00,
2013-01-21 19:28:00,-1.0,-4.9,30.06,NE,51,2.0,2.0,83,0.00,,---,0.00,VWS V14.01,2013-01-22 04:28:00,
2013-01-21 19:33:00,-1.1,-5.0,30.05,NE,55,1.0,2.0,83,0.00,,---,0.00,VWS V14.01,2013-01-22 04:33:00,
2013-01-21 19:38:00,-1.3,-5.2,30.05,NE,55,2.0,3.0,83,0.00,,---,0.00,VWS V14.01,2013-01-22 04:38:00,
2013-01-21 19:43:00,-1.4,-5.3,30.05,NE,55,2.0,3.0,83,0.00,,---,0.00,VWS V14.01,2013-01-22 04:43:00,
2013-01-21 19:48:00,-1.5,-5.2,30.05,NE,46,1.0,2.0,84,0.00,,---,0.00,VWS V14.01,2013-01-22 04:48:00,
2013-01-21 19:53:00,-1.6,-5.2,30.05,NE,53,1.0,3.0,84,0.00,,---,0.00,VWS V14.01,2013-01-22 04:53:00,
2013-01-21 19:58:00,-1.7,-5.6,30.05,NE,46,2.0,2.0,83,0.00,,---,0.00,VWS V14.01,2013-01-22 04:58:00,
2013-01-21 20:00:00,-1.8,-5.7,30.05,ENE,67,3.0,3.0,83,0.00,,---,0.00,VWS V14.01,2013-01-22 05:00:00,
2013-01-21 20:06:00,-2.0,-5.9,30.05,NE,49,1.0,3.0,83,0.00,,---,0.00,VWS V14.01,2013-01-22 05:06:00,
2013-01-21 20:11:00,-2.1,-6.0,30.05,ENE,59,4.0,4.0,83,0.00,,---,0.00,VWS V14.01,2013-01-22 05:11:00,
2013-01-21 20:16:00,-2.3,-6.2,30.05,ENE,58,2.0,2.0,83,0.00,,---,0.00,VWS V14.01,2013-01-22 05:16:00,
2013-01-21 20:21:00,-2.4,-6.3,30.05,ENE,60,4.0,4.0,83,0.00,,---,0.00,VWS V14.01,2013-01-22 05:21:00,
2013-01-21 20:26:00,-2.4,-6.3,30.05,NE,40,1.0,1.0,83,0.00,,---,0.00,VWS V14.01,2013-01-22 05:26:00,
2013-01-21 20:31:00,-2.5,-6.4,30.05,ENE,72,4.0,4.0,83,0.00,,---,0.00,VWS V14.01,2013-01-22 05:31:00,
2013-01-21 20:36:00,-2.5,-6.1,30.05,NE,47,2.0,3.0,84,0.00,,---,0.00,VWS V14.01,2013-01-22 05:36:00,
2013-01-21 20:41:00,-2.4,-5.8,30.04,ENE,72,3.0,3.0,85,0.00,,---,0.00,VWS V14.01,2013-01-22 05:41:00,
2013-01-21 20:46:00,-2.4,-5.8,30.04,NE,55,2.0,3.0,85,0.00,,---,0.00,VWS V14.01,2013-01-22 05:46:00,
2013-01-21 20:51:00,-2.3,-5.7,30.04,ENE,59,3.0,4.0,85,0.00,,---,0.00,VWS V14.01,2013-01-22 05:51:00,
2013-01-21 20:56:00,-2.2,-5.6,30.04,NE,47,3.0,4.0,85,0.00,,---,0.00,VWS V14.01,2013-01-22 05:56:00,
2013-01-21 21:01:00,-2.2,-5.6,30.04,ENE,72,3.0,3.0,85,0.00,,---,0.00,VWS V14.01,2013-01-22 06:01:00,
2013-01-21 21:06:00,-2.1,-5.5,30.03,ENE,72,2.0,2.0,85,0.00,,---,0.00,VWS V14.01,2013-01-22 06:06:00,
2013-01-21 21:11:00,-2.1,-5.5,30.04,NE,55,1.0,1.0,85,0.00,,---,0.00,VWS V14.01,2013-01-22 06:11:00,
2013-01-21 21:16:00,-2.1,-5.5,30.04,NE,55,1.0,1.0,85,0.00,,---,0.00,VWS V14.01,2013-01-22 06:16:00,
2013-01-21 21:21:00,-2.1,-5.5,30.04,ENE,74,1.0,2.0,85,0.00,,---,0.00,VWS V14.01,2013-01-22 06:21:00,
2013-01-21 21:26:00,-2.1,-5.5,30.03,NE,55,1.0,1.0,85,0.00,,---,0.00,VWS V14.01,2013-01-22 06:26:00,
2013-01-21 21:31:00,-2.1,-5.5,30.03,NE,55,0.0,0.0,85,0.00,,---,0.00,VWS V14.01,2013-01-22 06:31:00,
2013-01-21 21:36:00,-2.1,-5.5,30.03,NE,55,1.0,1.0,85,0.00,,---,0.00,VWS V14.01,2013-01-22 06:36:00,
2013-01-21 21:41:00,-2.2,-5.6,30.03,NE,55,1.0,2.0,85,0.00,,---,0.00,VWS V14.01,2013-01-22 06:41:00,
2013-01-21 21:46:00,-2.3,-5.9,30.03,NE,55,1.0,2.0,84,0.00,,---,0.00,VWS V14.01,2013-01-22 06:46:00,
2013-01-21 21:51:00,-2.3,-5.9,30.03,NE,49,1.0,1.0,84,0.00,,---,0.00,VWS V14.01,2013-01-22 06:51:00,
2013-01-21 21:56:00,-2.4,-6.0,30.03,NE,49,1.0,2.0,84,0.00,,---,0.00,VWS V14.01,2013-01-22 06:56:00,
2013-01-21 22:01:00,-2.6,-6.2,30.03,NE,49,1.0,1.0,84,0.00,,---,0.00,VWS V14.01,2013-01-22 07:01:00,
2013-01-21 22:06:00,-2.7,-6.3,30.03,NE,49,0.0,1.0,84,0.00,,---,0.00,VWS V14.01,2013-01-22 07:06:00,
2013-01-21 22:11:00,-2.8,-6.4,30.03,NE,43,1.0,1.0,84,0.00,,---,0.00,VWS V14.01,2013-01-22 07:11:00,
2013-01-21 22:16:00,-2.9,-6.5,30.03,NE,41,1.0,2.0,84,0.00,,---,0.00,VWS V14.01,2013-01-22 07:16:00,
2013-01-21 22:21:00,-3.0,-6.9,30.03,NE,46,1.0,1.0,83,0.00,,---,0.00,VWS V14.01,2013-01-22 07:21:00,
2013-01-21 22:26:00,-3.2,-7.1,30.02,NNE,32,2.0,2.0,83,0.00,,---,0.00,VWS V14.01,2013-01-22 07:26:00,
2013-01-21 22:31:00,-3.3,-7.2,30.02,NNE,21,2.0,3.0,83,0.00,,---,0.00,VWS V14.01,2013-01-22 07:31:00,
2013-01-21 22:36:00,-3.5,-7.4,30.02,NNE,24,1.0,3.0,83,0.00,,---,0.00,VWS V14.01,2013-01-22 07:36:00,
2013-01-21 22:41:00,-3.6,-7.5,30.02,NE,40,0.0,3.0,83,0.00,,---,0.00,VWS V14.01,2013-01-22 07:41:00,
2013-01-21 22:46:00,-3.6,-7.5,30.02,NE,36,0.0,2.0,83,0.00,,---,0.00,VWS V14.01,2013-01-22 07:46:00,
2013-01-21 22:51:00,-3.9,-7.8,30.02,NNE,28,1.0,3.0,83,0.00,,---,0.00,VWS V14.01,2013-01-22 07:51:00,
2013-01-21 22:56:00,-4.0,-7.8,30.01,NE,34,3.0,3.0,83,0.00,,---,0.00,VWS V14.01,2013-01-22 07:56:00,
2013-01-21 23:01:00,-4.1,-7.9,30.01,NE,36,2.0,3.0,83,0.00,,---,0.00,VWS V14.01,2013-01-22 08:01:00,
2013-01-21 23:06:00,-4.2,-8.0,30.01,NE,34,2.0,2.0,83,0.00,,---,0.00,VWS V14.01,2013-01-22 08:06:00,
2013-01-21 23:11:00,-4.3,-8.1,30.01,NNE,28,0.0,1.0,83,0.00,,---,0.00,VWS V14.01,2013-01-22 08:11:00,
2013-01-21 23:16:00,-4.3,-8.1,30.01,NE,36,1.0,2.0,83,0.00,,---,0.00,VWS V14.01,2013-01-22 08:16:00,
2013-01-21 23:21:00,-4.4,-8.2,30.01,NE,34,1.0,3.0,83,0.00,,---,0.00,VWS V14.01,2013-01-22 08:21:00,
2013-01-21 23:26:00,-4.4,-8.2,30.01,NE,40,3.0,3.0,83,0.00,,---,0.00,VWS V14.01,2013-01-22 08:26:00,
2013-01-21 23:31:00,-4.4,-8.0,30.01,NE,36,2.0,4.0,84,0.00,,---,0.00,VWS V14.01,2013-01-22 08:31:00,
2013-01-21 23:36:00,-4.5,-8.3,30.01,NE,35,2.0,4.0,83,0.00,,---,0.00,VWS V14.01,2013-01-22 08:36:00,
2013-01-21 23:41:00,-4.6,-8.4,30.01,NE,38,2.0,5.0,83,0.00,,---,0.00,VWS V14.01,2013-01-22 08:41:00,
2013-01-21 23:46:00,-4.7,-8.5,30.00,NE,34,2.0,6.0,83,0.00,,---,0.00,VWS V14.01,2013-01-22 08:46:00,
2013-01-21 23:51:00,-4.5,-8.1,30.00,NE,36,2.0,4.0,84,0.00,,---,0.00,VWS V14.01,2013-01-22 08:51:00,
2013-01-21 23:56:00,-4.3,-7.7,30.00,NNE,32,2.0,5.0,85,0.00,,---,0.00,VWS V14.01,2013-01-22 08:56:00,